Meeker, CO

1:00 AM MST on December 13, 2017 (GMT -0700)
Meeker

Weather History for KEEO - April, 2013

Change the Weather History Date:

Friday, April 5, 2013

  Actual Average Record
Temperature  
Mean Temperature 50 °F 40 °F  
Max Temperature 66 °F 54 °F 70 °F (2002)
Min Temperature 34 °F 26 °F 3 °F (2009)
Degree Days  
Heating Degree Days 15 25  
Month to date heating degree days 97 126  
Since 1 July heating degree days 7059 6858  
Cooling Degree Days 0 0  
Month to date cooling degree days 0 0  
Year to date cooling degree days 0 0  
Moisture  
Dew Point 29 °F    
Average Humidity 52    
Maximum Humidity 85    
Minimum Humidity 19    
Precipitation  
Precipitation 0.04 in 0.05 in 0.39 in (2004)
Month to date precipitation 0.41 0.24  
Year to date precipitation 1.95 3.42  
Sea Level Pressure  
Sea Level Pressure 29.86 in    
Wind  
Wind Speed 7 mph (North)    
Max Wind Speed 32 mph    
Max Gust Speed 41 mph    
Visibility 10 miles    
Events Rain    
T = Trace of Precipitation, MM = Missing Value Source: NWS Daily Summary

Daily Weather History Graph

Daily Weather History Graph

Search for Another Location

Airport or City:

Trip Planner

Search our weather history database for the weather conditions in past years. The results will help you decide how hot, cold, wet, or windy it might be!

Date:

Astronomy

Apr. 05, 2013 Rise Set
Actual Time 6:48 AM MDT 7:40 PM MDT
Civil Twilight 6:21 AM MDT 8:07 PM MDT
Nautical Twilight 5:48 AM MDT 8:40 PM MDT
Astronomical Twilight 5:14 AM MDT 9:14 PM MDT
Moon 3:57 AM MDT (4/5) 3:07 PM MDT (4/5)
Length of Visible Light 13h 46m
Length of Day
12h 51m
Waning Crescent, 23% of the Moon is Illuminated
Apr 5
Waning Crescent
Apr 10
New
Apr 18
First Quarter
Apr 25
Full
May 2
Last Quarter

Hourly Weather History & Observations

Time (MDT) Temp. Windchill Dew Point Humidity Pressure Visibility Wind Dir Wind Speed Gust Speed Precip Events Conditions
12:53 AM 43.0 °F 38.8 °F 27.0 °F 53% 29.92 in 10.0 mi NNE 6.9 mph - N/A   Clear
1:53 AM 39.9 °F 37.8 °F 27.0 °F 60% 29.92 in 10.0 mi NE 3.5 mph - N/A   Clear
2:53 AM 39.0 °F 35.7 °F 27.0 °F 62% 29.89 in 10.0 mi Variable 4.6 mph - N/A   Mostly Cloudy
3:53 AM 39.9 °F - 26.1 °F 58% 29.87 in 10.0 mi Calm Calm - N/A   Scattered Clouds
4:53 AM 39.9 °F 37.8 °F 28.0 °F 63% 29.86 in 10.0 mi ENE 3.5 mph - N/A   Overcast
5:53 AM 39.9 °F - 28.9 °F 65% 29.84 in 10.0 mi Calm Calm - N/A   Overcast
6:53 AM 41.0 °F - 30.0 °F 65% 29.86 in 10.0 mi Calm Calm - N/A   Mostly Cloudy
7:53 AM 46.0 °F - 28.0 °F 50% 29.86 in 10.0 mi Calm Calm - N/A   Overcast
8:53 AM 52.0 °F - 26.1 °F 37% 29.88 in 10.0 mi West 9.2 mph - N/A   Overcast
9:53 AM 55.0 °F - 25.0 °F 31% 29.82 in 10.0 mi NNW 13.8 mph - N/A   Scattered Clouds
10:53 AM 57.0 °F - 23.0 °F 27% 29.80 in 10.0 mi Variable 3.5 mph - N/A   Clear
11:53 AM 59.0 °F - 24.1 °F 26% 29.78 in 10.0 mi WSW 5.8 mph - N/A   Scattered Clouds
12:53 PM 61.0 °F - 21.0 °F 21% 29.75 in 10.0 mi SSW 19.6 mph 29.9 mph N/A   Overcast
1:41 PM 62.6 °F - 19.4 °F 19% 29.89 in 10.0 mi SSW 19.6 mph 33.4 mph N/A   Mostly Cloudy
1:53 PM 62.1 °F - 19.9 °F 20% 29.74 in 10.0 mi SW 18.4 mph 28.8 mph N/A   Mostly Cloudy
2:53 PM 61.0 °F - 19.9 °F 21% 29.72 in 10.0 mi West 12.7 mph 20.7 mph N/A   Overcast
3:53 PM 59.0 °F - 26.1 °F 28% 29.73 in 10.0 mi NW 19.6 mph 31.1 mph 0.00 in   Overcast
4:04 PM 53.6 °F - 30.2 °F 41% 29.88 in 10.0 mi NNW 23.0 mph 29.9 mph N/A   Overcast
4:53 PM 45.0 °F 37.4 °F 36.0 °F 71% 29.86 in 10.0 mi NW 18.4 mph 29.9 mph 0.00 in Rain Light Rain
5:53 PM 44.1 °F 41.5 °F 37.9 °F 79% 29.92 in 10.0 mi Variable 4.6 mph - 0.03 in Rain Light Rain
6:53 PM 43.0 °F 38.8 °F 39.0 °F 86% 29.91 in 10.0 mi East 6.9 mph - 0.01 in   Overcast
7:13 PM 42.8 °F 37.5 °F 37.4 °F 81% 29.98 in 10.0 mi ENE 9.2 mph - N/A   Mostly Cloudy
7:53 PM 41.0 °F 36.4 °F 36.0 °F 82% 29.90 in 10.0 mi ENE 6.9 mph - N/A   Clear
8:53 PM 39.9 °F 37.8 °F 35.1 °F 83% 29.90 in 10.0 mi East 3.5 mph - N/A   Scattered Clouds
9:53 PM 39.9 °F 35.8 °F 35.1 °F 83% 29.91 in 10.0 mi NE 5.8 mph - N/A   Mostly Cloudy
10:53 PM 37.0 °F 34.5 °F 34.0 °F 89% 29.93 in 10.0 mi ESE 3.5 mph - N/A   Scattered Clouds
11:53 PM 37.0 °F - 34.0 °F 89% 29.94 in 10.0 mi Calm Calm - N/A   Mostly Cloudy